Content
SEND FEEDBACK

Daily
Averages
Monthly
Summary
United States of America

BOYNE FALLS, MICHIGAN


Home > North America > United States > Michigan
Elevation: 715 feet     Latitude: 45 10N     Longitude: 084 55W

WEATHER
 
SELECT A DAY
Number of Records: 215,056;   Date Range: 3/26/98 - 12/16/14
 
SHARE

PRINT THIS DATA

[ ← Previous Day ]
WEATHER ALMANAC - JANUARY 31, 2013
[ Next Day → ]
[ °C ]   °F
Weather ElementAverageHighLow
Temperature13.5 °F17.6 °F (12:20 am)12 °F (4:53 am)
Dewpoint9.3 °F15.8 °F (12:20 am)6.8 °F (6:48 am)
Humidity83.2 %93 % (12:20 am)73 % (12:21 pm)
Barometer29.51 in29.82 in (11:53 pm)29.14 in (12:20 am)
Wind Speed8.3 mph16.1 mph (3:53 am)
Wind Gust27.6 mph (3:53 am)
Weather ElementAverage
Visibility2 mi
Wind DirectionSW (227.6 °)

Weather ElementTotal
Precipitation0.11 in
Heating Degree Days50.2 (Base 65)
Averaged from 83 records on January 31, 2013
WEATHER CONDITIONS BREAKOUT
WIND DIRECTION BREAKOUT
WEATHER BY HOUR - JANUARY 31, 2013
[ °C ]   °F
Local TimeTemperatureDewpointHumidityBarometerVisibilityWind DirectionWind SpeedGust SpeedPrecipitationEventsConditions
12:20 AM17.6 °F15.8 °F93 %29.14 in1.5 miWNW (290°)9.2 mph23.0 mph0.01 inSnowLight Snow
12:53 AM17.1 °F12.9 °F84 %29.21 in2.5 miWNW (300°)11.5 mph20.7 mph0.01 inSnowLight Snow
1:10 AM17.6 °F12.2 °F79 %29.16 in1.8 miWNW (300°)10.4 mph19.6 mph0.00 inSnowLight Snow
1:36 AM15.8 °F12.2 °F86 %29.17 in1.2 miWNW (290°)15.0 mph24.2 mph0.00 inSnowLight Snow
1:44 AM15.8 °F10.4 °F79 %29.18 in1.8 miWNW (300°)15.0 mph25.3 mph0.00 inSnowLight Snow
1:53 AM15.1 °F10.9 °F84 %29.24 in1.8 miWNW (290°)12.7 mph21.9 mph0.00 inSnowLight Snow
2:27 AM15.8 °F10.4 °F79 %29.20 in1.2 miWest (280°)6.9 mph19.6 mph0.00 inSnowLight Snow
2:53 AM14.0 °F10.0 °F84 %29.26 in1.2 miWNW (300°)12.7 mph25.3 mph0.00 inSnowLight Snow
3:08 AM14.0 °F10.4 °F86 %29.22 in1.2 miWNW (290°)11.5 mph23.0 mph0.00 inSnowLight Snow
3:30 AM12.2 °F10.4 °F92 %29.23 in0.8 miWNW (300°)12.7 mph26.5 mph0.00 inSnowLight Snow
3:33 AM12.2 °F10.4 °F92 %29.23 in1.0 miWNW (300°)10.4 mph26.5 mph0.00 inSnowLight Snow
3:40 AM12.2 °F10.4 °F92 %29.23 in1.0 miWNW (300°)11.5 mph21.9 mph0.00 inSnowLight Snow
3:53 AM12.9 °F9.0 °F84 %29.29 in1.2 miWNW (300°)16.1 mph27.6 mph0.00 inSnowLight Snow
4:07 AM12.2 °F8.6 °F85 %29.25 in1.5 miWNW (290°)12.7 mph25.3 mph0.00 inSnowLight Snow
4:53 AM12.0 °F9.0 °F88 %29.32 in1.0 miWNW (300°)10.4 mph17.3 mph0.00 inSnowLight Snow
5:05 AM12.2 °F8.6 °F85 %29.27 in1.5 miWNW (300°)9.2 mph18.4 mph0.00 inSnowLight Snow
5:51 AM12.2 °F8.6 °F85 %29.30 in2.0 miWNW (300°)11.5 mph20.7 mph0.00 inSnowLight Snow
5:53 AM12.0 °F8.1 °F84 %29.37 in2.0 miWNW (300°)12.7 mph20.7 mph0.00 inSnowLight Snow
6:06 AM12.2 °F8.6 °F85 %29.31 in3.0 miWNW (300°)8.1 mph19.6 mph0.00 inSnowLight Snow
6:48 AM12.2 °F6.8 °F79 %29.33 in4.0 miWNW (300°)8.1 mph19.6 mph0.00 inSnowLight Snow
6:53 AM12.0 °F7.0 °F80 %29.39 in5.0 miWNW (300°)9.2 mph19.6 mph0.00 inSnowLight Snow
7:53 AM12.0 °F7.0 °F80 %29.43 in4.0 miNW (310°)8.1 mph19.6 mph0.00 inSnowLight Snow
8:07 AM12.2 °F6.8 °F79 %29.38 in2.5 miWNW (300°)9.2 mph16.1 mph0.00 inSnowLight Snow
8:17 AM12.2 °F6.8 °F79 %29.39 in1.8 miVariable6.9 mph0.00 inSnowLight Snow
8:53 AM12.0 °F8.1 °F84 %29.47 in1.5 miVariable6.9 mph0.00 inSnowLight Snow
9:15 AM12.2 °F8.6 °F85 %29.42 in2.5 miNW (320°)6.9 mph0.00 inSnowLight Snow
9:22 AM12.2 °F6.8 °F79 %29.42 in3.0 miNW (310°)8.1 mph0.00 inSnowLight Snow
9:45 AM12.2 °F8.6 °F85 %29.44 in2.5 miNW (320°)12.7 mph19.6 mph0.00 inSnowLight Snow
9:53 AM12.0 °F7.0 °F80 %29.51 in3.0 miNW (320°)9.2 mph21.9 mph0.00 inSnowLight Snow
10:06 AM12.2 °F6.8 °F79 %29.45 in2.5 miNW (310°)9.2 mph19.6 mph0.00 inSnowLight Snow
10:20 AM12.2 °F6.8 °F79 %29.46 in3.0 miNW (310°)8.1 mph16.1 mph0.00 inSnowLight Snow
10:37 AM12.2 °F6.8 °F79 %29.47 in2.5 miVariable6.9 mph0.00 inSnowLight Snow
10:48 AM12.2 °F6.8 °F79 %29.47 in3.0 miNW (320°)6.9 mph16.1 mph0.00 inSnowLight Snow
10:53 AM12.9 °F7.0 °F77 %29.55 in3.0 miNW (310°)8.1 mph16.1 mph0.00 inSnowLight Snow
11:53 AM14.0 °F8.1 °F77 %29.57 in2.5 miWNW (300°)5.8 mph18.4 mph0.00 inSnowLight Snow
12:21 PM15.8 °F8.6 °F73 %29.51 in1.8 miNW (310°)9.2 mph18.4 mph0.00 inSnowLight Snow
12:28 PM15.8 °F8.6 °F73 %29.51 in2.5 miVariable6.9 mph18.4 mph0.00 inSnowLight Snow
12:43 PM15.8 °F8.6 °F73 %29.51 in1.8 miWest (270°)10.4 mph20.7 mph0.00 inSnowLight Snow
12:53 PM15.1 °F10.0 °F80 %29.59 in1.2 miVariable6.9 mph0.00 inSnowLight Snow
1:04 PM15.8 °F10.4 °F79 %29.52 in0.8 miNW (310°)9.2 mph0.00 inSnowLight Snow
1:11 PM15.8 °F8.6 °F73 %29.52 in1.0 miWNW (290°)11.5 mph18.4 mph0.00 inSnowLight Snow
1:53 PM15.1 °F9.0 °F77 %29.60 in0.8 miNW (310°)9.2 mph21.9 mph0.00 inSnowLight Snow
2:13 PM15.8 °F10.4 °F79 %29.53 in0.2 miNW (310°)6.9 mph0.00 inFog-SnowSnow
2:24 PM15.8 °F10.4 °F79 %29.53 in0.8 miWNW (300°)8.1 mph0.00 inSnowLight Snow
2:31 PM15.8 °F8.6 °F73 %29.54 in1.5 miVariable6.9 mph0.00 inSnowLight Snow
2:53 PM15.1 °F10.0 °F80 %29.62 in0.8 miNW (310°)9.2 mph0.00 inSnowLight Snow
2:58 PM15.8 °F10.4 °F79 %29.55 in1.5 miNNW (330°)8.1 mph0.00 inSnowLight Snow
3:07 PM15.8 °F10.4 °F79 %29.56 in2.0 miNW (310°)12.7 mph19.6 mph0.00 inSnowLight Snow
3:14 PM15.8 °F10.4 °F79 %29.56 in1.0 miWNW (300°)8.1 mph19.6 mph0.00 inSnowLight Snow
3:22 PM14.0 °F10.4 °F86 %29.56 in0.5 miWNW (290°)8.1 mph0.00 inFog-SnowLight Snow
3:43 PM14.0 °F10.4 °F86 %29.57 in1.2 miWNW (300°)10.4 mph17.3 mph0.00 inSnowLight Snow
3:53 PM14.0 °F10.0 °F84 %29.65 in0.5 miWNW (300°)6.9 mph0.00 inFog-SnowLight Snow
4:08 PM14.0 °F10.4 °F86 %29.58 in1.0 miWest (280°)8.1 mph0.01 inSnowLight Snow
4:33 PM14.0 °F10.4 °F86 %29.59 in0.8 miWNW (300°)8.1 mph0.01 inSnowLight Snow
4:53 PM14.0 °F10.0 °F84 %29.69 in0.5 miWNW (300°)4.6 mph0.01 inFog-SnowLight Snow
5:15 PM14.0 °F8.6 °F79 %29.61 in1.8 miWNW (290°)9.2 mph0.00 inSnowLight Snow
5:22 PM14.0 °F10.4 °F86 %29.62 in2.5 miWNW (300°)8.1 mph0.00 inSnowLight Snow
5:35 PM14.0 °F10.4 °F86 %29.62 in1.2 miVariable5.8 mph0.00 inSnowLight Snow
5:42 PM14.0 °F10.4 °F86 %29.63 in3.0 miWNW (290°)6.9 mph0.00 inSnowLight Snow
5:47 PM14.0 °F10.4 °F86 %29.63 in2.0 miVariable4.6 mph0.00 inSnowLight Snow
5:53 PM14.0 °F10.0 °F84 %29.71 in1.2 miWest (280°)9.2 mph0.00 inSnowLight Snow
6:00 PM14.0 °F10.4 °F86 %29.63 in2.0 miWest (280°)8.1 mph0.00 inSnowLight Snow
6:07 PM14.0 °F10.4 °F86 %29.64 in4.0 miWNW (290°)6.9 mph0.00 inSnowLight Snow
6:39 PM12.2 °F10.4 °F92 %29.65 in5.0 miVariable6.9 mph0.00 inSnowLight Snow
6:53 PM14.0 °F10.0 °F84 %29.74 in1.8 miWNW (290°)3.5 mph0.00 inSnowLight Snow
7:50 PM12.2 °F8.6 °F85 %29.67 in2.5 miVariable5.8 mph0.00 inSnowLight Snow
7:53 PM12.9 °F9.0 °F84 %29.75 in2.5 miVariable6.9 mph0.00 inSnowLight Snow
8:00 PM12.2 °F8.6 °F85 %29.68 in4.0 miVariable4.6 mph0.00 inSnowLight Snow
8:16 PM12.2 °F8.6 °F85 %29.69 in2.0 miNW (310°)4.6 mph0.00 inSnowLight Snow
8:34 PM12.2 °F10.4 °F92 %29.69 in1.5 miCalm0.00 inSnowLight Snow
8:46 PM12.2 °F10.4 °F92 %29.69 in1.2 miCalm0.00 inSnowLight Snow
8:53 PM12.9 °F10.0 °F88 %29.78 in1.5 miCalm0.00 inSnowLight Snow
9:18 PM12.2 °F8.6 °F85 %29.70 in0.8 miWNW (300°)6.9 mph0.01 inSnowLight Snow
9:26 PM12.2 °F10.4 °F92 %29.70 in0.5 miVariable4.6 mph0.02 inFog-SnowSnow
9:53 PM12.9 °F9.0 °F84 %29.79 in1.5 miWNW (300°)9.2 mph16.1 mph0.03 inSnowLight Snow
9:55 PM12.2 °F8.6 °F85 %29.71 in2.0 miWNW (300°)8.1 mph0.00 inSnowLight Snow
9:58 PM12.2 °F8.6 °F85 %29.72 in3.0 miWNW (300°)9.2 mph0.00 inSnowLight Snow
10:32 PM12.2 °F8.6 °F85 %29.72 in5.0 miVariable6.9 mph0.00 inSnowLight Snow
10:48 PM12.2 °F8.6 °F85 %29.73 in2.5 miVariable5.8 mph0.00 inSnowLight Snow
10:53 PM12.0 °F9.0 °F88 %29.81 in3.0 miWNW (290°)5.8 mph0.00 inSnowLight Snow
11:20 PM12.2 °F8.6 °F85 %29.73 in4.0 miVariable5.8 mph0.00 inSnowLight Snow
11:51 PM12.2 °F8.6 °F85 %29.74 in3.0 miWNW (290°)5.8 mph0.00 inSnowLight Snow
11:53 PM12.0 °F8.1 °F84 %29.82 in4.0 miVariable5.8 mph0.00 inSnowLight Snow
Hourly data recorded from KGLR, located miles away from Boyne Falls, Michigan







STORIES FROM OUR PARTNERS